START_TIME,STEP,MOV.,M34,t_acc.,L5,t_acc.,L18,t_acc.,L14,t_acc.
1980-11-13 18:00:13.260 ,6,0,0.,12.0,0.,12.0,0.,12.0,0.,12.0
1980-11-13 18:00:25.260 ,6,0,0.,12.0,0.,12.0,0.,12.0,0.,12.0
1980-11-13 18:00:37.260 ,7,1,0.,12.0,0.,12.0,0.,12.0,0.,12.0
1980-11-13 18:00:49.260 ,7,1,0.,12.0,6.,12.0,0.,12.0,0.,12.0
1980-11-13 18:01:01.260 ,7,0,0.,12.0,2.,12.0,0.,12.0,0.,12.0
1980-11-13 18:01:13.260 ,7,0,0.,12.0,4.,12.0,0.,12.0,0.,12.0
1980-11-13 18:01:25.260 ,7,1,0.,12.0,2.,12.0,0.,12.0,0.,12.0
1980-11-13 18:01:37.260 ,7,1,0.,12.0,0.,12.0,0.,12.0,0.,12.0
1980-11-13 18:01:49.260 ,7,0,0.,12.0,4.,12.0,0.,12.0,0.,12.0
1980-11-13 18:02:01.260 ,7,0,0.,12.0,5.,12.0,0.,12.0,1.,12.0
1980-11-13 18:02:13.260 ,6,1,0.,12.0,9.,12.0,0.,12.0,0.,12.0
1980-11-13 18:02:25.260 ,6,1,0.,12.0,1.,12.0,0.,12.0,0.,12.0
1980-11-13 18:02:37.260 ,6,0,0.,12.0,0.,12.0,0.,12.0,0.,12.0
1980-11-13 18:02:49.260 ,6,0,0.,12.0,0.,12.0,0.,12.0,0.,12.0
1980-11-13 18:03:01.260 ,5,1,0.,12.0,0.,12.0,0.,12.0,0.,12.0
1980-11-13 18:03:13.260 ,5,1,0.,12.0,0.,12.0,0.,12.0,0.,12.0
1980-11-13 18:03:25.260 ,5,0,0.,12.0,0.,12.0,0.,12.0,0.,12.0
1980-11-13 18:03:37.260 ,5,0,0.,12.0,0.,12.0,0.,12.0,0.,12.0
1980-11-13 18:03:49.260 ,4,1,0.,12.0,0.,12.0,0.,12.0,0.,12.0
1980-11-13 18:04:01.260 ,4,1,0.,12.0,0.,12.0,0.,12.0,0.,12.0
1980-11-13 18:04:13.260 ,4,0,0.,12.0,0.,12.0,0.,12.0,0.,12.0
1980-11-13 18:04:25.260 ,4,0,0.,12.0,0.,12.0,0.,12.0,0.,12.0
1980-11-13 18:04:37.260 ,3,1,0.,12.0,0.,12.0,0.,12.0,0.,12.0
1980-11-13 18:04:49.260 ,3,1,0.,12.0,0.,12.0,0.,12.0,0.,12.0
1980-11-13 18:05:01.260 ,3,0,0.,12.0,0.,12.0,0.,12.0,0.,12.0
1980-11-13 18:05:13.260 ,3,0,0.,12.0,0.,12.0,0.,12.0,0.,12.0
1980-11-13 18:05:25.260 ,2,1,0.,12.0,0.,12.0,0.,12.0,0.,12.0
1980-11-13 18:05:37.260 ,2,1,0.,12.0,0.,12.0,0.,12.0,0.,12.0
1980-11-13 18:05:49.260 ,2,0,0.,12.0,0.,12.0,0.,12.0,0.,12.0
1980-11-13 18:06:01.260 ,2,0,0.,12.0,0.,12.0,0.,12.0,0.,12.0
1980-11-13 18:06:13.260 ,1,1,0.,12.0,0.,12.0,0.,12.0,1.,12.0
1980-11-13 18:06:25.260 ,1,1,0.,12.0,0.,12.0,0.,12.0,0.,12.0
1980-11-13 18:06:37.260 ,1,0,0.,12.0,0.,12.0,0.,12.0,0.,12.0
1980-11-13 18:06:49.260 ,1,0,0.,12.0,0.,12.0,0.,12.0,0.,12.0
1980-11-13 18:07:01.260 ,0,1,0.,12.0,0.,12.0,0.,12.0,0.,12.0
1980-11-13 18:07:13.260 ,0,1,0.,12.0,0.,12.0,0.,12.0,0.,12.0
1980-11-13 18:07:25.260 ,0,0,0.,12.0,0.,12.0,0.,12.0,0.,12.0
1980-11-13 18:07:37.260 ,0,0,0.,12.0,0.,12.0,0.,12.0,1.,12.0
1980-11-13 18:07:49.260 ,0,1,0.,12.0,0.,12.0,0.,12.0,0.,12.0
1980-11-13 18:08:01.260 ,0,1,0.,12.0,0.,12.0,0.,12.0,0.,12.0
1980-11-13 18:08:13.260 ,0,0,0.,12.0,0.,12.0,0.,12.0,0.,12.0
1980-11-13 18:08:25.260 ,0,0,0.,12.0,0.,12.0,0.,12.0,0.,12.0
1980-11-13 18:08:37.260 ,1,1,0.,12.0,0.,12.0,0.,12.0,0.,12.0
1980-11-13 18:08:49.260 ,1,1,0.,12.0,0.,12.0,0.,12.0,0.,12.0
1980-11-13 18:09:01.260 ,1,0,0.,12.0,0.,12.0,0.,12.0,0.,12.0
1980-11-13 18:09:13.260 ,1,0,0.,12.0,0.,12.0,0.,12.0,0.,12.0
1980-11-13 18:09:25.260 ,2,1,0.,12.0,0.,12.0,0.,12.0,0.,12.0
1980-11-13 18:09:37.260 ,2,1,0.,12.0,0.,12.0,0.,12.0,0.,12.0
1980-11-13 18:09:49.260 ,2,0,0.,12.0,0.,12.0,0.,12.0,0.,12.0
1980-11-13 18:10:01.260 ,2,0,0.,12.0,0.,12.0,0.,12.0,0.,12.0
1980-11-13 18:10:13.260 ,3,1,0.,12.0,0.,12.0,0.,12.0,0.,12.0
1980-11-13 18:10:25.260 ,3,1,0.,12.0,0.,12.0,0.,12.0,0.,12.0
1980-11-13 18:10:37.260 ,3,0,0.,12.0,0.,12.0,0.,12.0,1.,12.0
1980-11-13 18:10:49.260 ,3,0,0.,12.0,0.,12.0,0.,12.0,0.,12.0
1980-11-13 18:11:01.260 ,4,1,0.,12.0,0.,12.0,0.,12.0,0.,12.0
1980-11-13 18:11:13.260 ,4,1,0.,12.0,0.,12.0,0.,12.0,0.,12.0
1980-11-13 18:11:25.260 ,4,0,0.,12.0,0.,12.0,0.,12.0,0.,12.0
1980-11-13 18:11:37.260 ,4,0,0.,12.0,0.,12.0,0.,12.0,0.,12.0
1980-11-13 18:11:49.260 ,5,1,0.,12.0,0.,12.0,0.,12.0,0.,12.0
1980-11-13 18:12:01.260 ,5,1,0.,12.0,0.,12.0,0.,12.0,0.,12.0
1980-11-13 18:12:13.260 ,5,0,0.,12.0,0.,12.0,0.,12.0,0.,12.0
1980-11-13 18:12:25.260 ,5,0,0.,12.0,0.,12.0,0.,12.0,0.,12.0
1980-11-13 18:12:37.260 ,6,1,0.,12.0,0.,12.0,0.,12.0,0.,12.0
1980-11-13 18:12:49.260 ,6,1,0.,12.0,0.,12.0,0.,12.0,0.,12.0
1980-11-13 18:13:01.260 ,6,0,0.,12.0,0.,12.0,0.,12.0,0.,12.0
1980-11-13 18:13:13.260 ,6,0,0.,12.0,0.,12.0,0.,12.0,0.,12.0
1980-11-13 18:13:25.260 ,7,1,0.,12.0,0.,12.0,0.,12.0,0.,12.0
1980-11-13 18:13:37.260 ,7,1,0.,12.0,1.,12.0,0.,12.0,0.,12.0
1980-11-13 18:13:49.260 ,7,0,0.,12.0,2.,12.0,0.,12.0,0.,12.0
1980-11-13 18:14:01.260 ,7,0,0.,12.0,2.,12.0,0.,12.0,0.,12.0
1980-11-13 18:14:13.260 ,7,1,0.,12.0,6.,12.0,0.,12.0,0.,12.0
1980-11-13 18:14:25.260 ,7,1,0.,12.0,2.,12.0,0.,12.0,0.,12.0
1980-11-13 18:14:37.260 ,7,0,0.,12.0,4.,12.0,0.,12.0,0.,12.0
1980-11-13 18:14:49.260 ,7,0,0.,12.0,6.,12.0,0.,12.0,0.,12.0
1980-11-13 18:15:01.260 ,6,1,0.,12.0,4.,12.0,0.,12.0,0.,12.0
1980-11-13 18:15:13.260 ,6,1,0.,12.0,1.,12.0,0.,12.0,0.,12.0
1980-11-13 18:15:25.260 ,6,0,0.,12.0,0.,12.0,0.,12.0,0.,12.0
1980-11-13 18:15:37.260 ,6,0,0.,12.0,0.,12.0,0.,12.0,0.,12.0
1980-11-13 18:15:49.260 ,5,1,0.,12.0,0.,12.0,0.,12.0,0.,12.0
1980-11-13 18:16:01.260 ,5,1,0.,12.0,0.,12.0,0.,12.0,0.,12.0
1980-11-13 18:16:13.260 ,5,0,0.,12.0,0.,12.0,0.,12.0,0.,12.0
1980-11-13 18:16:25.260 ,5,0,0.,12.0,0.,12.0,0.,12.0,0.,12.0
1980-11-13 18:16:37.260 ,4,1,0.,12.0,0.,12.0,0.,12.0,1.,12.0
1980-11-13 18:16:49.260 ,4,1,0.,12.0,0.,12.0,0.,12.0,0.,12.0
1980-11-13 18:17:01.260 ,4,0,0.,12.0,0.,12.0,0.,12.0,1.,12.0
1980-11-13 18:17:13.260 ,4,0,0.,12.0,0.,12.0,0.,12.0,0.,12.0
1980-11-13 18:17:25.260 ,3,1,0.,12.0,0.,12.0,0.,12.0,0.,12.0
1980-11-13 18:17:37.260 ,3,1,0.,12.0,0.,12.0,0.,12.0,0.,12.0
1980-11-13 18:17:49.260 ,3,0,0.,12.0,0.,12.0,0.,12.0,0.,12.0
1980-11-13 18:18:01.260 ,3,0,0.,12.0,0.,12.0,0.,12.0,0.,12.0
1980-11-13 18:18:13.260 ,2,1,0.,12.0,0.,12.0,0.,12.0,1.,12.0
1980-11-13 18:18:25.260 ,2,1,0.,12.0,0.,12.0,0.,12.0,0.,12.0
1980-11-13 18:18:37.260 ,2,0,0.,12.0,0.,12.0,0.,12.0,0.,12.0
1980-11-13 18:18:49.260 ,2,0,0.,12.0,0.,12.0,0.,12.0,0.,12.0
1980-11-13 18:19:01.260 ,1,1,0.,12.0,0.,12.0,0.,12.0,0.,12.0
1980-11-13 18:19:13.260 ,1,1,0.,12.0,0.,12.0,0.,12.0,0.,12.0
1980-11-13 18:19:25.260 ,1,0,0.,12.0,0.,12.0,0.,12.0,0.,12.0
1980-11-13 18:19:37.260 ,1,0,0.,12.0,0.,12.0,0.,12.0,0.,12.0
1980-11-13 18:19:49.260 ,0,1,0.,12.0,0.,12.0,0.,12.0,0.,12.0
1980-11-13 18:20:01.260 ,0,1,0.,12.0,0.,12.0,0.,12.0,0.,12.0
1980-11-13 18:20:13.260 ,0,0,0.,12.0,0.,12.0,0.,12.0,0.,12.0
1980-11-13 18:20:25.260 ,0,0,0.,12.0,0.,12.0,0.,12.0,0.,12.0
1980-11-13 18:20:37.260 ,0,1,0.,12.0,0.,12.0,0.,12.0,0.,12.0
1980-11-13 18:20:49.260 ,0,1,0.,12.0,0.,12.0,0.,12.0,0.,12.0
1980-11-13 18:21:01.260 ,0,0,0.,12.0,0.,12.0,0.,12.0,0.,12.0
1980-11-13 18:21:13.260 ,0,0,0.,12.0,0.,12.0,0.,12.0,0.,12.0
1980-11-13 18:21:25.260 ,1,1,0.,12.0,0.,12.0,0.,12.0,0.,12.0
1980-11-13 18:21:37.260 ,1,1,0.,12.0,0.,12.0,0.,12.0,0.,12.0
1980-11-13 18:21:49.260 ,1,0,0.,12.0,0.,12.0,0.,12.0,0.,12.0
1980-11-13 18:22:01.260 ,1,0,0.,12.0,0.,12.0,0.,12.0,0.,12.0
1980-11-13 18:22:13.260 ,2,1,0.,12.0,0.,12.0,0.,12.0,0.,12.0
1980-11-13 18:22:25.260 ,2,1,0.,12.0,0.,12.0,0.,12.0,0.,12.0
1980-11-13 18:22:37.260 ,2,0,0.,12.0,0.,12.0,0.,12.0,0.,12.0
1980-11-13 18:22:49.260 ,2,0,0.,12.0,0.,12.0,0.,12.0,0.,12.0
1980-11-13 18:23:01.260 ,3,1,0.,12.0,0.,12.0,0.,12.0,0.,12.0
1980-11-13 18:23:13.260 ,3,1,0.,12.0,0.,12.0,0.,12.0,0.,12.0
1980-11-13 18:23:25.260 ,3,0,0.,12.0,0.,12.0,0.,12.0,0.,12.0
1980-11-13 18:23:37.260 ,3,0,0.,12.0,0.,12.0,0.,12.0,0.,12.0
1980-11-13 18:23:49.260 ,4,1,0.,12.0,0.,12.0,0.,12.0,0.,12.0
1980-11-13 18:24:01.260 ,4,1,0.,12.0,0.,12.0,0.,12.0,0.,12.0
1980-11-13 18:24:13.260 ,4,0,0.,12.0,0.,12.0,0.,12.0,0.,12.0
1980-11-13 18:24:25.260 ,4,0,0.,12.0,0.,12.0,0.,12.0,0.,12.0
1980-11-13 18:24:37.260 ,5,1,0.,12.0,0.,12.0,0.,12.0,0.,12.0
1980-11-13 18:24:49.260 ,5,1,0.,12.0,0.,12.0,0.,12.0,0.,12.0
1980-11-13 18:25:01.260 ,5,0,0.,12.0,0.,12.0,0.,12.0,0.,12.0
1980-11-13 18:25:13.260 ,5,0,0.,12.0,0.,12.0,0.,12.0,0.,12.0
1980-11-13 18:25:25.260 ,6,1,0.,12.0,0.,12.0,0.,12.0,0.,12.0
1980-11-13 18:25:37.260 ,6,1,0.,12.0,0.,12.0,0.,12.0,0.,12.0
1980-11-13 18:25:49.260 ,6,0,0.,12.0,0.,12.0,0.,12.0,0.,12.0
1980-11-13 18:26:01.260 ,6,0,0.,12.0,0.,12.0,0.,12.0,0.,12.0
1980-11-13 18:26:13.260 ,7,1,0.,12.0,0.,12.0,0.,12.0,0.,12.0
1980-11-13 18:26:25.260 ,7,1,0.,12.0,4.,12.0,0.,12.0,0.,12.0
1980-11-13 18:26:37.260 ,7,0,0.,12.0,4.,12.0,0.,12.0,0.,12.0
1980-11-13 18:26:49.260 ,7,0,0.,12.0,6.,12.0,0.,12.0,0.,12.0
1980-11-13 18:27:01.260 ,7,1,0.,12.0,3.,12.0,0.,12.0,0.,12.0
1980-11-13 18:27:13.260 ,7,1,0.,12.0,1.,12.0,0.,12.0,0.,12.0
1980-11-13 18:27:25.260 ,7,0,0.,12.0,3.,12.0,0.,12.0,0.,12.0
1980-11-13 18:27:37.260 ,7,0,0.,12.0,2.,12.0,0.,12.0,0.,12.0
1980-11-13 18:27:49.260 ,6,1,0.,12.0,3.,12.0,0.,12.0,0.,12.0
1980-11-13 18:28:01.260 ,6,1,0.,12.0,2.,12.0,0.,12.0,0.,12.0
1980-11-13 18:28:13.260 ,6,0,0.,12.0,0.,12.0,0.,12.0,0.,12.0
1980-11-13 18:28:25.260 ,6,0,0.,12.0,0.,12.0,0.,12.0,0.,12.0
1980-11-13 18:28:37.260 ,5,1,0.,12.0,0.,12.0,0.,12.0,0.,12.0
1980-11-13 18:28:49.260 ,5,1,0.,12.0,0.,12.0,0.,12.0,0.,12.0
1980-11-13 18:29:01.260 ,0,0,0.,12.0,0.,12.0,0.,12.0,0.,12.0
1980-11-13 18:29:13.260 ,0,0,0.,12.0,0.,12.0,0.,12.0,0.,12.0
1980-11-13 18:30:33.660 ,0,0,,0,,0,,0,,0
1980-11-13 18:30:45.660 ,0,0,,0,,0,,0,,0
1980-11-13 18:30:37.260 ,0,0,0.,12.0,0.,12.0,0.,12.0,0.,12.0
1980-11-13 18:30:49.260 ,0,0,0.,12.0,0.,12.0,0.,12.0,0.,12.0
1980-11-13 18:31:01.260 ,2,1,0.,12.0,0.,12.0,0.,12.0,0.,12.0
1980-11-13 18:31:13.260 ,2,1,0.,12.0,0.,12.0,0.,12.0,0.,12.0
1980-11-13 18:31:25.260 ,2,0,0.,12.0,0.,12.0,0.,12.0,0.,12.0
1980-11-13 18:31:37.260 ,2,0,0.,12.0,0.,12.0,0.,12.0,0.,12.0
1980-11-13 18:31:49.260 ,1,1,0.,12.0,0.,12.0,0.,12.0,0.,12.0
1980-11-13 18:32:01.260 ,1,1,0.,12.0,0.,12.0,0.,12.0,0.,12.0
1980-11-13 18:32:13.260 ,1,0,0.,12.0,0.,12.0,0.,12.0,0.,12.0
1980-11-13 18:32:25.260 ,1,0,0.,12.0,0.,12.0,0.,12.0,0.,12.0
1980-11-13 18:32:37.260 ,0,1,0.,12.0,0.,12.0,0.,12.0,0.,12.0
1980-11-13 18:32:49.260 ,0,1,0.,12.0,0.,12.0,0.,12.0,0.,12.0
1980-11-13 18:33:01.260 ,0,0,0.,12.0,0.,12.0,0.,12.0,0.,12.0
1980-11-13 18:33:13.260 ,0,0,0.,12.0,0.,12.0,0.,12.0,0.,12.0
1980-11-13 18:33:25.260 ,0,1,0.,12.0,0.,12.0,0.,12.0,0.,12.0
1980-11-13 18:33:37.260 ,0,1,0.,12.0,0.,12.0,0.,12.0,0.,12.0
1980-11-13 18:33:49.260 ,0,0,0.,12.0,0.,12.0,0.,12.0,0.,12.0
1980-11-13 18:34:01.260 ,0,0,0.,12.0,0.,12.0,0.,12.0,0.,12.0
1980-11-13 18:34:13.260 ,1,1,0.,12.0,0.,12.0,0.,12.0,0.,12.0
1980-11-13 18:34:25.260 ,1,1,0.,12.0,0.,12.0,0.,12.0,0.,12.0
1980-11-13 18:34:37.260 ,1,0,0.,12.0,0.,12.0,0.,12.0,0.,12.0
1980-11-13 18:34:49.260 ,1,0,0.,12.0,0.,12.0,0.,12.0,0.,12.0
1980-11-13 18:35:01.260 ,2,1,0.,12.0,0.,12.0,0.,12.0,0.,12.0
1980-11-13 18:35:13.260 ,2,1,0.,12.0,0.,12.0,0.,12.0,1.,12.0
1980-11-13 18:35:25.260 ,2,0,0.,12.0,0.,12.0,0.,12.0,0.,12.0
1980-11-13 18:35:37.260 ,2,0,0.,12.0,0.,12.0,0.,12.0,0.,12.0
1980-11-13 18:35:49.260 ,3,1,0.,12.0,0.,12.0,0.,12.0,0.,12.0
1980-11-13 18:36:01.260 ,3,1,0.,12.0,0.,12.0,0.,12.0,0.,12.0
1980-11-13 18:36:13.260 ,3,0,0.,12.0,0.,12.0,0.,12.0,0.,12.0
1980-11-13 18:36:25.260 ,3,0,0.,12.0,0.,12.0,0.,12.0,1.,12.0
1980-11-13 18:36:37.260 ,4,1,0.,12.0,0.,12.0,0.,12.0,0.,12.0
1980-11-13 18:36:49.260 ,4,1,0.,12.0,0.,12.0,0.,12.0,0.,12.0
1980-11-13 18:37:01.260 ,4,0,0.,12.0,0.,12.0,0.,12.0,0.,12.0
1980-11-13 18:37:13.260 ,4,0,0.,12.0,0.,12.0,0.,12.0,1.,12.0
1980-11-13 18:37:25.260 ,5,1,0.,12.0,0.,12.0,0.,12.0,0.,12.0
1980-11-13 18:37:37.260 ,5,1,0.,12.0,0.,12.0,0.,12.0,0.,12.0
1980-11-13 18:37:49.260 ,5,0,0.,12.0,0.,12.0,0.,12.0,0.,12.0
1980-11-13 18:38:01.260 ,5,0,0.,12.0,0.,12.0,0.,12.0,0.,12.0
1980-11-13 18:38:13.260 ,6,1,0.,12.0,0.,12.0,0.,12.0,1.,12.0
1980-11-13 18:38:25.260 ,6,1,0.,12.0,0.,12.0,0.,12.0,0.,12.0
1980-11-13 18:38:37.260 ,6,0,0.,12.0,0.,12.0,0.,12.0,0.,12.0
1980-11-13 18:38:49.260 ,6,0,0.,12.0,0.,12.0,0.,12.0,0.,12.0
1980-11-13 18:39:01.260 ,7,1,0.,12.0,0.,12.0,0.,12.0,0.,12.0
1980-11-13 18:39:13.260 ,7,1,0.,12.0,1.,12.0,0.,12.0,0.,12.0
1980-11-13 18:39:25.260 ,7,0,0.,12.0,5.,12.0,0.,12.0,0.,12.0
1980-11-13 18:39:37.260 ,7,0,0.,12.0,3.,12.0,0.,12.0,0.,12.0
1980-11-13 18:39:49.260 ,7,1,0.,12.0,4.,12.0,0.,12.0,0.,12.0
1980-11-13 18:40:01.260 ,7,1,0.,12.0,2.,12.0,0.,12.0,0.,12.0
1980-11-13 18:40:13.260 ,7,0,0.,12.0,2.,12.0,0.,12.0,0.,12.0
1980-11-13 18:40:25.260 ,7,0,0.,12.0,4.,12.0,0.,12.0,0.,12.0
1980-11-13 18:40:37.260 ,6,1,0.,12.0,2.,12.0,0.,12.0,1.,12.0
1980-11-13 18:40:49.260 ,6,1,0.,12.0,3.,12.0,0.,12.0,0.,12.0
1980-11-13 18:41:01.260 ,6,0,0.,12.0,0.,12.0,0.,12.0,0.,12.0
1980-11-13 18:41:13.260 ,6,0,0.,12.0,0.,12.0,0.,12.0,0.,12.0
1980-11-13 18:41:25.260 ,5,1,0.,12.0,0.,12.0,0.,12.0,0.,12.0
1980-11-13 18:41:37.260 ,5,1,0.,12.0,0.,12.0,0.,12.0,0.,12.0
1980-11-13 18:41:49.260 ,5,0,0.,12.0,0.,12.0,0.,12.0,0.,12.0
1980-11-13 18:42:01.260 ,5,0,0.,12.0,0.,12.0,0.,12.0,0.,12.0
1980-11-13 18:42:13.260 ,4,1,0.,12.0,0.,12.0,0.,12.0,0.,12.0
1980-11-13 18:42:25.260 ,4,1,0.,12.0,0.,12.0,0.,12.0,0.,12.0
1980-11-13 18:42:37.260 ,4,0,0.,12.0,0.,12.0,0.,12.0,0.,12.0
1980-11-13 18:42:49.260 ,4,0,0.,12.0,0.,12.0,0.,12.0,0.,12.0
1980-11-13 18:43:01.260 ,3,1,0.,12.0,0.,12.0,0.,12.0,0.,12.0
1980-11-13 18:43:13.260 ,3,1,0.,12.0,0.,12.0,0.,12.0,0.,12.0
1980-11-13 18:43:25.260 ,3,0,0.,12.0,0.,12.0,0.,12.0,0.,12.0
1980-11-13 18:43:37.260 ,3,0,0.,12.0,0.,12.0,0.,12.0,0.,12.0
1980-11-13 18:43:49.260 ,2,1,0.,12.0,0.,12.0,0.,12.0,0.,12.0
1980-11-13 18:44:01.260 ,2,1,0.,12.0,0.,12.0,0.,12.0,0.,12.0
1980-11-13 18:44:13.260 ,2,0,0.,12.0,0.,12.0,0.,12.0,0.,12.0
1980-11-13 18:44:25.260 ,2,0,0.,12.0,0.,12.0,0.,12.0,0.,12.0
1980-11-13 18:44:37.260 ,1,1,0.,12.0,0.,12.0,0.,12.0,0.,12.0
1980-11-13 18:44:49.260 ,1,1,0.,12.0,0.,12.0,0.,12.0,0.,12.0
1980-11-13 18:45:01.260 ,1,0,0.,12.0,0.,12.0,0.,12.0,0.,12.0
1980-11-13 18:45:13.260 ,1,0,0.,12.0,0.,12.0,0.,12.0,0.,12.0
1980-11-13 18:45:25.260 ,0,1,0.,12.0,0.,12.0,0.,12.0,0.,12.0
1980-11-13 18:45:37.260 ,0,1,0.,12.0,0.,12.0,0.,12.0,0.,12.0
1980-11-13 18:45:49.260 ,0,0,0.,12.0,0.,12.0,0.,12.0,0.,12.0
1980-11-13 18:46:01.260 ,0,0,0.,12.0,0.,12.0,0.,12.0,1.,12.0
1980-11-13 18:46:13.260 ,0,1,0.,12.0,0.,12.0,0.,12.0,0.,12.0
1980-11-13 18:46:25.260 ,0,1,0.,12.0,0.,12.0,0.,12.0,0.,12.0
1980-11-13 18:46:37.260 ,0,0,0.,12.0,0.,12.0,0.,12.0,0.,12.0
1980-11-13 18:46:49.260 ,0,0,0.,12.0,0.,12.0,0.,12.0,0.,12.0
1980-11-13 18:47:01.260 ,1,1,0.,12.0,0.,12.0,0.,12.0,0.,12.0
1980-11-13 18:47:13.260 ,1,1,0.,12.0,0.,12.0,0.,12.0,0.,12.0
1980-11-13 18:47:25.260 ,1,0,0.,12.0,0.,12.0,0.,12.0,0.,12.0
1980-11-13 18:47:37.260 ,1,0,0.,12.0,0.,12.0,0.,12.0,0.,12.0
1980-11-13 18:47:49.260 ,2,1,0.,12.0,0.,12.0,0.,12.0,0.,12.0
1980-11-13 18:48:01.260 ,2,1,0.,12.0,0.,12.0,0.,12.0,0.,12.0
1980-11-13 18:48:13.260 ,2,0,0.,12.0,0.,12.0,0.,12.0,0.,12.0
1980-11-13 18:48:25.260 ,2,0,0.,12.0,0.,12.0,0.,12.0,0.,12.0
1980-11-13 18:48:37.260 ,3,1,0.,12.0,0.,12.0,0.,12.0,0.,12.0
1980-11-13 18:48:49.260 ,3,1,0.,12.0,0.,12.0,0.,12.0,0.,12.0
1980-11-13 18:49:01.260 ,3,0,0.,12.0,0.,12.0,0.,12.0,0.,12.0
1980-11-13 18:49:13.260 ,3,0,0.,12.0,0.,12.0,0.,12.0,0.,12.0
1980-11-13 18:49:25.260 ,4,1,0.,12.0,0.,12.0,0.,12.0,0.,12.0
1980-11-13 18:49:37.260 ,4,1,0.,12.0,0.,12.0,0.,12.0,0.,12.0
1980-11-13 18:49:49.260 ,4,0,0.,12.0,0.,12.0,0.,12.0,0.,12.0
1980-11-13 18:50:01.260 ,4,0,0.,12.0,0.,12.0,0.,12.0,0.,12.0
1980-11-13 18:50:13.260 ,5,1,0.,12.0,0.,12.0,0.,12.0,0.,12.0
1980-11-13 18:50:25.260 ,5,1,0.,12.0,0.,12.0,0.,12.0,0.,12.0
1980-11-13 18:50:37.260 ,5,0,0.,12.0,0.,12.0,0.,12.0,0.,12.0
1980-11-13 18:50:49.260 ,5,0,0.,12.0,0.,12.0,0.,12.0,0.,12.0
1980-11-13 18:51:01.260 ,6,1,0.,12.0,0.,12.0,0.,12.0,0.,12.0
1980-11-13 18:51:13.260 ,6,1,0.,12.0,0.,12.0,0.,12.0,0.,12.0
1980-11-13 18:51:25.260 ,6,0,0.,12.0,0.,12.0,0.,12.0,0.,12.0
1980-11-13 18:51:37.260 ,6,0,0.,12.0,0.,12.0,0.,12.0,1.,12.0
1980-11-13 18:51:49.260 ,7,1,0.,12.0,0.,12.0,0.,12.0,0.,12.0
1980-11-13 18:52:01.260 ,7,1,0.,12.0,1.,12.0,0.,12.0,0.,12.0
1980-11-13 18:52:13.260 ,7,0,0.,12.0,5.,12.0,0.,12.0,0.,12.0
1980-11-13 18:52:25.260 ,7,0,0.,12.0,1.,12.0,0.,12.0,0.,12.0
1980-11-13 18:52:37.260 ,7,1,0.,12.0,6.,12.0,0.,12.0,0.,12.0
1980-11-13 18:52:49.260 ,7,1,0.,12.0,5.,12.0,0.,12.0,0.,12.0
1980-11-13 18:53:01.260 ,7,0,0.,12.0,3.,12.0,0.,12.0,0.,12.0
1980-11-13 18:53:13.260 ,7,0,0.,12.0,2.,12.0,0.,12.0,0.,12.0
1980-11-13 18:53:25.260 ,6,1,0.,12.0,4.,12.0,0.,12.0,0.,12.0
1980-11-13 18:53:37.260 ,6,1,0.,12.0,1.,12.0,0.,12.0,0.,12.0
1980-11-13 18:53:49.260 ,6,0,0.,12.0,0.,12.0,0.,12.0,0.,12.0
1980-11-13 18:54:01.260 ,6,0,0.,12.0,0.,12.0,0.,12.0,0.,12.0
1980-11-13 18:54:13.260 ,5,1,0.,12.0,0.,12.0,0.,12.0,0.,12.0
1980-11-13 18:54:25.260 ,5,1,0.,12.0,0.,12.0,0.,12.0,0.,12.0
1980-11-13 18:54:37.260 ,5,0,0.,12.0,0.,12.0,0.,12.0,0.,12.0
1980-11-13 18:54:49.260 ,5,0,0.,12.0,0.,12.0,0.,12.0,0.,12.0
1980-11-13 18:55:01.260 ,4,1,0.,12.0,0.,12.0,0.,12.0,0.,12.0
1980-11-13 18:55:13.260 ,4,1,0.,12.0,0.,12.0,0.,12.0,0.,12.0
1980-11-13 18:55:25.260 ,4,0,0.,12.0,0.,12.0,0.,12.0,0.,12.0
1980-11-13 18:55:37.260 ,4,0,0.,12.0,0.,12.0,0.,12.0,0.,12.0
1980-11-13 18:55:49.260 ,3,1,0.,12.0,0.,12.0,0.,12.0,0.,12.0
1980-11-13 18:56:01.260 ,3,1,0.,12.0,0.,12.0,0.,12.0,0.,12.0
1980-11-13 18:56:13.260 ,3,0,0.,12.0,0.,12.0,0.,12.0,0.,12.0
1980-11-13 18:56:25.260 ,3,0,0.,12.0,0.,12.0,0.,12.0,0.,12.0
1980-11-13 18:56:37.260 ,2,1,0.,12.0,0.,12.0,0.,12.0,0.,12.0
1980-11-13 18:56:49.260 ,2,1,0.,12.0,0.,12.0,0.,12.0,0.,12.0
1980-11-13 18:57:01.260 ,2,0,0.,12.0,0.,12.0,0.,12.0,0.,12.0
1980-11-13 18:57:13.260 ,2,0,0.,12.0,0.,12.0,0.,12.0,0.,12.0
1980-11-13 18:57:25.260 ,1,1,0.,12.0,0.,12.0,0.,12.0,0.,12.0
1980-11-13 18:57:37.260 ,1,1,0.,12.0,0.,12.0,0.,12.0,0.,12.0
1980-11-13 18:57:49.260 ,1,0,0.,12.0,0.,12.0,0.,12.0,0.,12.0
1980-11-13 18:58:01.260 ,1,0,0.,12.0,0.,12.0,0.,12.0,0.,12.0
1980-11-13 18:58:13.260 ,0,1,0.,12.0,0.,12.0,0.,12.0,0.,12.0
1980-11-13 18:58:25.260 ,0,1,0.,12.0,0.,12.0,0.,12.0,0.,12.0
1980-11-13 18:58:37.260 ,0,0,0.,12.0,0.,12.0,0.,12.0,0.,12.0
1980-11-13 18:58:49.260 ,0,0,0.,12.0,0.,12.0,0.,12.0,0.,12.0
1980-11-13 18:59:01.260 ,0,1,0.,12.0,0.,12.0,0.,12.0,0.,12.0
1980-11-13 18:59:13.260 ,0,1,0.,12.0,0.,12.0,0.,12.0,0.,12.0
1980-11-13 18:59:25.260 ,0,0,0.,12.0,0.,12.0,0.,12.0,0.,12.0
1980-11-13 18:59:37.260 ,0,0,0.,12.0,0.,12.0,0.,12.0,0.,12.0
1980-11-13 18:59:49.260 ,1,1,0.,12.0,0.,12.0,0.,12.0,0.,12.0
1980-11-13 19:00:01.260 ,1,1,0.,12.0,0.,12.0,0.,12.0,0.,12.0
1980-11-13 19:00:13.260 ,1,0,0.,12.0,0.,12.0,0.,12.0,0.,12.0
1980-11-13 19:00:25.260 ,1,0,0.,12.0,0.,12.0,0.,12.0,0.,12.0
1980-11-13 19:00:37.260 ,2,1,0.,12.0,0.,12.0,0.,12.0,0.,12.0
1980-11-13 19:00:49.260 ,2,1,0.,12.0,0.,12.0,0.,12.0,0.,12.0
1980-11-13 19:01:01.260 ,2,0,0.,12.0,0.,12.0,0.,12.0,0.,12.0
1980-11-13 19:01:13.260 ,2,0,0.,12.0,0.,12.0,0.,12.0,0.,12.0
1980-11-13 19:01:25.260 ,3,1,0.,12.0,0.,12.0,0.,12.0,0.,12.0
1980-11-13 19:01:37.260 ,3,1,0.,12.0,0.,12.0,0.,12.0,0.,12.0
1980-11-13 19:01:49.260 ,3,0,0.,12.0,0.,12.0,0.,12.0,0.,12.0
1980-11-13 19:02:01.260 ,3,0,0.,12.0,0.,12.0,0.,12.0,0.,12.0
1980-11-13 19:02:13.260 ,4,1,0.,12.0,0.,12.0,0.,12.0,0.,12.0
1980-11-13 19:02:25.260 ,4,1,0.,12.0,0.,12.0,0.,12.0,0.,12.0
1980-11-13 19:02:37.260 ,4,0,0.,12.0,0.,12.0,0.,12.0,0.,12.0
1980-11-13 19:02:49.260 ,4,0,0.,12.0,0.,12.0,0.,12.0,0.,12.0
1980-11-13 19:03:01.260 ,5,1,0.,12.0,0.,12.0,0.,12.0,0.,12.0
1980-11-13 19:03:13.260 ,5,1,0.,12.0,0.,12.0,0.,12.0,0.,12.0
1980-11-13 19:03:25.260 ,5,0,0.,12.0,0.,12.0,0.,12.0,0.,12.0
1980-11-13 19:03:37.260 ,5,0,0.,12.0,0.,12.0,0.,12.0,0.,12.0
1980-11-13 19:03:49.260 ,6,1,0.,12.0,0.,12.0,0.,12.0,0.,12.0
1980-11-13 19:04:01.260 ,6,1,0.,12.0,0.,12.0,0.,12.0,0.,12.0
1980-11-13 19:04:13.260 ,6,0,0.,12.0,0.,12.0,0.,12.0,0.,12.0
1980-11-13 19:04:25.260 ,6,0,0.,12.0,0.,12.0,0.,12.0,0.,12.0
1980-11-13 19:04:37.260 ,7,1,0.,12.0,0.,12.0,0.,12.0,0.,12.0
1980-11-13 19:04:49.260 ,7,1,0.,12.0,3.,12.0,0.,12.0,1.,12.0
1980-11-13 19:05:01.260 ,7,0,0.,12.0,2.,12.0,0.,12.0,0.,12.0
1980-11-13 19:05:13.260 ,7,0,0.,12.0,4.,12.0,0.,12.0,0.,12.0
1980-11-13 19:05:25.260 ,7,1,0.,12.0,3.,12.0,0.,12.0,0.,12.0
1980-11-13 19:05:37.260 ,7,1,0.,12.0,4.,12.0,0.,12.0,0.,12.0
1980-11-13 19:05:49.260 ,7,0,0.,12.0,2.,12.0,0.,12.0,0.,12.0
1980-11-13 19:06:01.260 ,7,0,0.,12.0,5.,12.0,0.,12.0,0.,12.0
1980-11-13 19:06:13.260 ,6,1,0.,12.0,3.,12.0,0.,12.0,0.,12.0
1980-11-13 19:06:25.260 ,6,1,0.,12.0,1.,12.0,0.,12.0,0.,12.0
1980-11-13 19:06:37.260 ,6,0,0.,12.0,0.,12.0,0.,12.0,0.,12.0
1980-11-13 19:06:49.260 ,6,0,0.,12.0,0.,12.0,0.,12.0,0.,12.0
1980-11-13 19:07:01.260 ,5,1,0.,12.0,0.,12.0,0.,12.0,0.,12.0
1980-11-13 19:07:13.260 ,5,1,0.,12.0,0.,12.0,0.,12.0,0.,12.0
1980-11-13 19:07:25.260 ,5,0,0.,12.0,0.,12.0,0.,12.0,0.,12.0
1980-11-13 19:07:37.260 ,5,0,0.,12.0,0.,12.0,0.,12.0,0.,12.0
1980-11-13 19:07:49.260 ,4,1,0.,12.0,0.,12.0,0.,12.0,0.,12.0
1980-11-13 19:08:01.260 ,4,1,0.,12.0,0.,12.0,0.,12.0,0.,12.0
1980-11-13 19:08:13.260 ,4,0,0.,12.0,0.,12.0,0.,12.0,0.,12.0
1980-11-13 19:08:25.260 ,4,0,0.,12.0,0.,12.0,0.,12.0,0.,12.0
1980-11-13 19:08:37.260 ,3,1,0.,12.0,0.,12.0,0.,12.0,0.,12.0
1980-11-13 19:08:49.260 ,3,1,0.,12.0,0.,12.0,0.,12.0,0.,12.0
1980-11-13 19:09:01.260 ,3,0,0.,12.0,0.,12.0,0.,12.0,0.,12.0
1980-11-13 19:09:13.260 ,3,0,0.,12.0,0.,12.0,0.,12.0,0.,12.0
1980-11-13 19:09:25.260 ,2,1,0.,12.0,0.,12.0,0.,12.0,0.,12.0
1980-11-13 19:09:37.260 ,2,1,0.,12.0,0.,12.0,0.,12.0,0.,12.0
1980-11-13 19:09:49.260 ,2,0,0.,12.0,0.,12.0,0.,12.0,0.,12.0
1980-11-13 19:10:01.260 ,2,0,0.,12.0,0.,12.0,0.,12.0,0.,12.0
1980-11-13 19:10:13.260 ,1,1,0.,12.0,0.,12.0,0.,12.0,0.,12.0
1980-11-13 19:10:25.260 ,1,1,0.,12.0,0.,12.0,0.,12.0,0.,12.0
1980-11-13 19:10:37.260 ,1,0,0.,12.0,0.,12.0,0.,12.0,0.,12.0
1980-11-13 19:10:49.260 ,1,0,0.,12.0,0.,12.0,0.,12.0,0.,12.0
1980-11-13 19:11:01.260 ,0,1,0.,12.0,0.,12.0,0.,12.0,0.,12.0
1980-11-13 19:11:13.260 ,0,1,0.,12.0,0.,12.0,0.,12.0,0.,12.0
1980-11-13 19:11:25.260 ,0,0,0.,12.0,0.,12.0,0.,12.0,0.,12.0
1980-11-13 19:11:37.260 ,0,0,0.,12.0,0.,12.0,0.,12.0,0.,12.0
1980-11-13 19:11:49.260 ,0,1,0.,12.0,0.,12.0,0.,12.0,0.,12.0
1980-11-13 19:12:01.260 ,0,1,0.,12.0,0.,12.0,0.,12.0,0.,12.0
1980-11-13 19:12:13.260 ,0,0,0.,12.0,0.,12.0,0.,12.0,0.,12.0
1980-11-13 19:12:25.260 ,0,0,0.,12.0,0.,12.0,0.,12.0,0.,12.0
1980-11-13 19:12:37.260 ,1,1,0.,12.0,0.,12.0,0.,12.0,0.,12.0
1980-11-13 19:12:49.260 ,1,1,0.,12.0,0.,12.0,0.,12.0,0.,12.0
1980-11-13 19:13:01.260 ,1,0,0.,12.0,0.,12.0,0.,12.0,0.,12.0
1980-11-13 19:13:13.260 ,1,0,0.,12.0,0.,12.0,0.,12.0,0.,12.0
1980-11-13 19:13:25.260 ,2,1,0.,12.0,0.,12.0,0.,12.0,0.,12.0
1980-11-13 19:13:37.260 ,2,1,0.,12.0,0.,12.0,0.,12.0,0.,12.0
1980-11-13 19:13:49.260 ,2,0,0.,12.0,0.,12.0,0.,12.0,0.,12.0
1980-11-13 19:14:01.260 ,2,0,0.,12.0,0.,12.0,0.,12.0,0.,12.0
1980-11-13 19:14:13.260 ,3,1,0.,12.0,0.,12.0,0.,12.0,1.,12.0
1980-11-13 19:14:25.260 ,3,1,0.,12.0,0.,12.0,0.,12.0,0.,12.0
1980-11-13 19:14:37.260 ,3,0,0.,12.0,0.,12.0,0.,12.0,0.,12.0
1980-11-13 19:14:49.260 ,3,0,0.,12.0,0.,12.0,0.,12.0,0.,12.0
1980-11-13 19:15:01.260 ,4,1,0.,12.0,0.,12.0,0.,12.0,0.,12.0
1980-11-13 19:15:13.260 ,4,1,0.,12.0,0.,12.0,0.,12.0,0.,12.0
1980-11-13 19:15:25.260 ,4,0,0.,12.0,0.,12.0,0.,12.0,0.,12.0
1980-11-13 19:15:37.260 ,4,0,0.,12.0,0.,12.0,0.,12.0,0.,12.0
1980-11-13 19:15:49.260 ,5,1,0.,12.0,0.,12.0,0.,12.0,0.,12.0
1980-11-13 19:16:01.260 ,5,1,0.,12.0,0.,12.0,0.,12.0,0.,12.0
1980-11-13 19:16:13.260 ,5,0,0.,12.0,0.,12.0,0.,12.0,0.,12.0
1980-11-13 19:16:25.260 ,5,0,0.,12.0,0.,12.0,0.,12.0,0.,12.0
1980-11-13 19:16:37.260 ,6,1,0.,12.0,0.,12.0,0.,12.0,0.,12.0
1980-11-13 19:16:49.260 ,6,1,0.,12.0,0.,12.0,0.,12.0,0.,12.0
1980-11-13 19:17:01.260 ,6,0,0.,12.0,0.,12.0,0.,12.0,0.,12.0
1980-11-13 19:17:13.260 ,6,0,0.,12.0,0.,12.0,0.,12.0,0.,12.0
1980-11-13 19:17:25.260 ,7,1,0.,12.0,0.,12.0,0.,12.0,0.,12.0
1980-11-13 19:17:37.260 ,7,1,0.,12.0,2.,12.0,0.,12.0,0.,12.0
1980-11-13 19:17:49.260 ,7,0,0.,12.0,4.,12.0,0.,12.0,0.,12.0
1980-11-13 19:18:01.260 ,7,0,,0,,0,,0,,0
1980-11-13 19:18:13.260 ,7,1,0.,12.0,3.,12.0,0.,12.0,0.,12.0